75000 - Paris

Modèle arome - 05/05/2026 03:00
Altitude : 28 - 131m

05/05/2026 à 11:58 (UTC)

Date (UTC!) Model Picto Température Min Max T850 T950 Humidité Précipitation Neige (proba) Pression Nuages Bas Nuages Moyen Nuages Haut Nuages Total Nuages Corrigés CAPE Iso Vent (dir) Vent (vitesse) Rafales (vitesse)
05/05 - 04:00 arome 13,58 13,58 13,62 5,87 10,18 96,94 0,00 (1h) 0,00 10,10 100,00 55,90 100,00 100,01 100,00 107,93 0,00 29,01 9,43 20,61
05/05 - 05:00 arome 13,67 13,52 13,70 5,99 10,00 87,80 0,00 (1h) 0,00 10,09 100,00 4,40 100,00 100,01 100,00 17,09 0,00 40,87 12,71 27,81
05/05 - 06:00 arome 13,50 13,46 13,67 5,98 9,98 91,70 0,00 (1h) 0,00 10,09 100,00 0,00 100,00 100,01 100,00 19,42 0,00 30,23 13,08 26,57
05/05 - 07:00 arome 13,39 13,34 13,51 5,08 9,93 91,61 0,00 (1h) 0,00 10,09 100,00 2,20 100,00 100,01 100,00 32,54 0,00 27,07 12,90 26,15
05/05 - 08:00 arome 13,34 13,33 13,61 5,38 9,94 92,76 0,00 (1h) 0,00 10,09 100,00 99,95 100,00 100,01 100,00 43,64 0,00 22,34 12,69 25,96
05/05 - 09:00 arome 13,98 13,21 13,98 5,74 9,97 87,26 0,00 (1h) 0,00 10,09 100,00 100,00 100,00 100,01 100,00 43,52 0,00 30,13 11,90 26,82
05/05 - 10:00 arome 14,83 14,02 14,84 5,14 10,22 82,42 0,00 (1h) 0,00 10,08 100,00 100,00 100,00 100,01 100,00 102,31 0,00 25,31 13,22 27,65
05/05 - 11:00 arome 15,46 14,73 15,46 4,99 10,61 78,21 0,00 (1h) 0,00 10,08 100,00 100,00 100,00 100,01 100,00 107,25 0,00 20,82 12,86 27,62
05/05 - 12:00 arome 15,65 15,41 15,94 5,22 10,70 76,67 0,04 (1h) 0,00 10,07 100,00 100,00 100,00 100,01 100,00 111,20 0,00 10,73 15,46 30,70
05/05 - 13:00 arome 14,54 14,54 15,66 5,37 10,16 84,58 0,43 (1h) 0,00 10,07 100,00 100,00 100,00 100,01 100,00 81,22 0,00 20,31 17,43 38,37
05/05 - 14:00 arome 14,48 14,29 14,55 5,40 10,13 84,85 1,07 (1h) 0,00 10,07 100,00 100,00 100,00 100,01 100,00 63,29 0,00 20,25 16,54 34,66
05/05 - 15:00 arome 14,91 14,49 14,92 5,25 10,27 82,14 0,43 (1h) 0,00 10,06 100,00 100,00 100,00 100,01 100,00 75,93 0,00 23,03 17,76 36,78
05/05 - 16:00 arome 14,67 14,67 14,91 5,15 10,32 83,34 0,09 (1h) 0,00 10,06 100,00 100,00 100,00 100,01 100,00 78,45 0,00 19,80 18,60 37,17
05/05 - 17:00 arome 14,34 14,34 14,67 5,27 9,99 82,36 0,04 (1h) 0,00 10,06 100,00 100,00 100,00 100,01 100,00 40,24 0,00 19,72 19,31 40,32
05/05 - 18:00 arome 13,93 13,93 14,33 5,56 9,89 84,57 0,76 (1h) 0,00 10,06 100,00 100,00 100,00 100,01 100,00 68,71 0,00 19,16 17,11 38,81
05/05 - 19:00 arome 13,58 13,57 13,92 5,17 9,66 86,53 1,08 (1h) 0,00 10,06 99,80 100,00 100,00 100,01 100,00 50,02 0,00 17,39 15,05 36,19
05/05 - 20:00 arome 13,22 13,21 13,57 5,28 9,32 86,89 0,90 (1h) 0,00 10,07 100,00 100,00 100,00 100,01 100,00 72,03 0,00 7,06 15,24 31,36
05/05 - 21:00 arome 12,85 12,85 13,21 4,86 9,06 87,39 1,99 (1h) 0,00 10,07 100,00 100,00 100,00 100,01 100,00 35,27 0,00 1,57 14,44 31,15
05/05 - 22:00 arome 12,71 12,71 12,84 4,75 8,91 87,75 1,21 (1h) 0,00 10,07 100,00 100,00 100,00 100,01 100,00 44,89 0,00 354,96 13,12 28,70
05/05 - 23:00 arome 12,62 12,62 12,71 4,92 8,82 87,47 0,67 (1h) 0,00 10,07 100,00 100,00 100,00 100,01 100,00 45,47 0,00 352,25 13,88 27,90
06/05 - 00:00 arome 12,17 12,16 12,62 4,86 8,03 83,04 0,24 (1h) 0,00 10,07 100,00 100,00 100,00 100,01 100,00 68,72 0,00 354,88 15,72 31,80
06/05 - 01:00 arome 11,52 11,52 12,16 4,66 7,37 83,30 0,08 (1h) 0,00 10,07 100,00 100,00 99,30 100,01 100,00 52,94 0,00 342,58 11,55 31,68
06/05 - 02:00 arome 11,11 11,11 11,51 4,68 7,04 84,42 0,26 (1h) 0,00 10,07 100,00 100,00 96,15 100,01 100,00 57,22 0,00 332,33 10,00 23,38
06/05 - 03:00 arome 10,80 10,80 11,10 4,63 6,93 86,50 0,00 (1h) 0,00 10,07 100,00 100,00 100,00 100,01 100,00 65,90 0,00 323,42 9,91 20,64
06/05 - 04:00 arome 10,65 10,65 10,80 4,44 7,04 88,52 1,77 (1h) 0,00 10,07 100,00 100,00 100,00 100,01 100,00 68,15 0,00 316,96 10,44 20,13
06/05 - 05:00 arome 10,60 10,58 10,65 3,94 7,10 89,62 0,69 (1h) 0,00 10,07 100,00 100,00 100,00 100,01 100,00 63,63 0,00 325,38 10,46 21,06
06/05 - 06:00 arome 10,84 10,59 10,84 3,46 6,92 87,28 1,07 (1h) 0,00 10,07 100,00 100,00 100,00 100,01 100,00 53,43 0,00 339,76 10,82 21,58
06/05 - 07:00 arome 10,89 10,83 10,94 2,92 6,70 85,27 1,14 (1h) 0,00 10,08 100,00 100,00 89,70 100,01 100,00 34,52 0,00 350,59 13,65 27,13
06/05 - 08:00 arome 11,23 10,87 11,22 3,36 6,73 82,73 0,19 (1h) 0,00 10,08 100,00 100,00 91,80 100,01 100,00 34,05 0,00 351,97 11,60 27,65
06/05 - 09:00 arome 11,98 11,24 12,00 3,85 6,98 79,89 0,09 (1h) 0,00 10,08 100,00 100,00 89,35 100,01 100,00 41,72 0,00 350,59 12,77 26,36
06/05 - 10:00 arome 12,69 11,90 12,70 2,99 7,52 75,43 0,04 (1h) 0,00 10,08 100,00 100,00 68,45 100,01 100,00 53,94 0,00 346,16 12,64 26,84
06/05 - 11:00 arome 13,21 12,64 13,20 2,08 8,10 71,18 0,00 (1h) 0,00 10,09 100,00 100,00 92,40 100,01 100,00 48,29 0,00 343,98 11,87 26,51
06/05 - 12:00 arome 14,48 13,24 14,48 2,16 9,05 65,06 0,00 (1h) 0,00 10,09 62,30 100,00 99,95 100,01 100,00 51,48 0,00 332,63 11,51 26,55
06/05 - 13:00 arome 14,31 14,29 14,84 2,61 9,22 62,18 0,00 (1h) 0,00 10,09 100,00 100,00 100,00 100,01 100,00 69,27 0,00 1,66 13,65 27,53
06/05 - 14:00 arome 14,20 14,02 14,38 2,62 9,19 63,87 0,15 (1h) 0,00 10,09 100,00 100,00 99,65 100,01 100,00 54,41 0,00 352,69 9,91 27,29
06/05 - 15:00 arome 14,65 14,21 14,79 2,75 9,51 63,86 0,01 (1h) 0,00 10,09 100,00 94,40 100,00 100,01 100,00 51,39 0,00 1,53 10,80 22,59
06/05 - 16:00 arome 14,46 14,34 14,75 2,60 9,67 66,99 0,21 (1h) 0,00 10,09 97,05 100,00 100,00 100,01 100,00 46,30 0,00 350,88 9,99 23,83
06/05 - 17:00 arome 14,80 14,34 14,80 2,89 9,87 64,14 0,03 (1h) 0,00 10,09 41,10 100,00 100,00 100,01 100,00 44,38 0,00 348,57 6,90 20,50
06/05 - 18:00 arome 14,74 14,74 15,04 2,55 9,99 62,68 0,00 (1h) 0,00 10,09 95,60 100,00 100,00 100,01 100,00 32,31 0,00 338,36 9,37 18,53
06/05 - 19:00 arome 13,78 13,66 14,74 2,40 9,96 68,23 0,07 (1h) 0,00 10,10 98,55 100,00 100,00 100,01 100,00 22,82 0,00 321,06 5,79 26,18
06/05 - 20:00 arome 13,66 13,66 13,85 2,14 9,98 70,35 0,00 (1h) 0,00 10,10 90,05 100,00 100,00 100,01 100,00 27,16 0,00 287,50 6,95 11,55
06/05 - 21:00 arome 13,20 13,20 13,65 2,26 9,02 76,54 0,00 (1h) 0,00 10,11 100,00 10,15 69,20 100,01 100,00 47,73 0,00 326,01 9,47 18,74